{"data":{"norad_id":36033,"intl_designator":"2009-058B","name":"THOR 6","alt_names":[],"object_type":"PAYLOAD","status":"ACTIVE","operator":null,"country":"NOR","launch_date":"2009-10-29","launch_site_code":"FRGUI","launch_vehicle":null,"mission":null,"orbit_class":"UNKNOWN","rcs_meters":7.0794,"size_class":null,"mass_kg":null,"dimensions":null,"purposes":["comms"],"wikipedia_slug":null,"has_3d_model":false,"image_url":null,"decayed_at":null,"tle_current":{"epoch":"2026-09-19T22:05:59.311104Z","epoch_age_seconds":68085,"freshness":"FRESH","line1":"1 36033U 09058B   26262.92082536 -.00000014  00000+0  00000+0 0  9994","line2":"2 36033   0.0086 178.0022 0001838   9.6899 141.7989  1.00271277 61959","mean_motion":1.00271277,"eccentricity":0.0001838,"inclination_deg":0.0086,"raan_deg":178.0022,"arg_perigee_deg":9.6899,"mean_anomaly_deg":141.7989,"bstar":0,"rev_number":6195,"period_min":1436.1041796645,"perigee_km":35778.987468723,"apogee_km":35794.487276543,"semimajor_km":42164.874372633,"source":"CELESTRAK","updated_at":"2026-09-20T09:00:35.160394Z"}}}